User: anonymous   Login
Location: NC_16_and_73
(35.4490°N, 81.0150°W)
Time: 02:17:06
(UTC-04:00)
Language:

Cosmos-2242 - Orbit

View from above orbital plane
View from above orbital plane
View from above satellite
View from above satellite

Ground track
Ground track

The orbit data is extracted from the following two-line orbital elements,

1 22626U 93024A   16206.82440955  .00000257  00000-0  25470-4 0  9994
2 22626  82.5230 350.3858 0020413 124.9920 235.3218 14.87489467257487
Epoch (UTC): 24 July 2016 19:47:08
Eccentricity: 0.0020413
inclination: 82.5230°
perigee height: 591 km
apogee height: 620 km
right ascension of ascending node: 350.3858°
argument of perigee: 124.9920°
revolutions per day: 14.87489467
mean anomaly at epoch: 235.3218°
orbit number at epoch: 25748

The dashed part of the orbit path shows where the satellite is in the earth's shadow,  

DLR